Voltar ao catálogo

SCOT-1

SCOT

AtivoMilitarSSO
NORAD 62617·PAYLOAD·🇸🇬 Singapore

Lançado Jan 14, 2025 de Vandenberg Space Force Base

Loading…

Próximas Passagens (próximas 24 horas)

TLE

AtualizadoSource: Space-Track

Época: Sep 13, 2026, 18:35 UTC

1 62617U 25009J   26256.77448216  .00104205  00000-0  94047-3 0  9997
2 62617  97.3796 348.1858 0002231 283.3405  76.7607 15.67814968 93162

Acompanhe SCOT-1 em tempo real com AllMySat

Download on the App Store